SUPERBIRD-C2

Last updated on Tue Sep 22 2026 00:03:11 GMT+0000 (Coordinated Universal Time)

1 33274U 08038A 26264.51602412 -.00000308 00000+0 00000+0 0 9999 2 33274 2.6019 79.9732 0005755 70.7965 171.4263 1.00273890106698
UTC large
Height (km)
Speed (km/s)
/
Latitude / Longitude
Inclination (degrees)
Orbital Period (minutes)
Azimuth
Elevation
Range (km)
Doppler Factor

Next 0 passes for location: London (51.5072 / 0.1276)

No passes found over London.
SUPERBIRD-C2